User: anonymous   Login
Location: Unspecified
(0.0000°N, 0.0000°E)
Time: 00:05:34
(UTC+00:00)
Language:

SJ-9B - Orbit

View from above orbital plane
View from above orbital plane
View from above satellite
View from above satellite

Ground track
Ground track

The orbit is defined by the following mean orbital elements,

1 38861U          26145.36553928 +.00000000 +00000-0 +18861-3 0 00005
2 38861  97.5971 130.3098 0013740 293.9173  66.0606 14.91226541    08
Epoch (UTC): 25 May 2026 08:46:22
Eccentricity: 0.0013740
inclination: 97.5971°
perigee height: 585 km
apogee height: 604 km
right ascension of ascending node: 130.3098°
argument of perigee: 293.9173°
revolutions per day: 14.91226541
mean anomaly at epoch: 66.0606°

The dashed part of the orbit path shows where the satellite is in the earth's shadow,  

DLR